Marfa, TX

8:47 PM CDT on July 22, 2017 (GMT -0500)
Marfa Municipal

Weather History for KMRF - September, 2011

Change the Weather History Date:

Wednesday, September 21, 2011

  Actual Average Record
Temperature  
Mean Temperature 68 °F -  
Max Temperature 84 °F 79 °F 89 °F (1998)
Min Temperature 53 °F 51 °F 46 °F (1996)
Cooling Degree Days 4    
Growing Degree Days 18 (Base 50)    
Moisture  
Dew Point 49 °F    
Average Humidity 59    
Maximum Humidity 94    
Minimum Humidity 17    
Precipitation  
Precipitation 0.00 in - - ()
Sea Level Pressure  
Sea Level Pressure 30.17 in    
Wind  
Wind Speed 6 mph (NNE)    
Max Wind Speed 22 mph    
Max Gust Speed 38 mph    
Visibility 10 miles    
Events Thunderstorm    
Averages and records for this station are not official NWS values.
T = Trace of Precipitation, MM = Missing Value Source: NWS Daily Summary

Daily Weather History Graph

Daily Weather History Graph

Search for Another Location

Airport or City:

Trip Planner

Search our weather history database for the weather conditions in past years. The results will help you decide how hot, cold, wet, or windy it might be!

Date:

Astronomy

Sep. 21, 2011 Rise Set
Actual Time 7:43 AM CDT 7:54 PM CDT
Civil Twilight 7:19 AM CDT 8:18 PM CDT
Nautical Twilight 6:51 AM CDT 8:46 PM CDT
Astronomical Twilight 6:23 AM CDT 9:14 PM CDT
Moon 1:29 AM CDT (9/21) 3:43 PM CDT (9/21)
Length of Visible Light 12h 58m
Length of Day
12h 10m
Last Quarter, 38% of the Moon is Illuminated
Sep 21
Last Quarter
Sep 27
New
Oct 3
First Quarter
Oct 11
Full
Oct 19
Last Quarter

Hourly Weather History & Observations

Time (CDT) Temp. Dew Point Humidity Pressure Visibility Wind Dir Wind Speed Gust Speed Precip Events Conditions
12:15 AM 60.8 °F 55.4 °F 82% 30.15 in 10.0 mi NW 3.5 mph - N/A   Clear
12:35 AM 59.0 °F 55.4 °F 88% 30.15 in 10.0 mi NNW 6.9 mph - N/A   Clear
12:55 AM 59.0 °F 55.4 °F 88% 30.15 in 10.0 mi NNW 6.9 mph - N/A   Clear
1:15 AM 60.8 °F 53.6 °F 77% 30.15 in 10.0 mi North 3.5 mph - N/A   Clear
1:35 AM 59.0 °F 53.6 °F 82% 30.14 in 10.0 mi North 4.6 mph - N/A   Clear
1:55 AM 57.2 °F 53.6 °F 88% 30.15 in 10.0 mi NNW 3.5 mph - N/A   Clear
2:15 AM 57.2 °F 53.6 °F 88% 30.15 in 10.0 mi NNW 6.9 mph - N/A   Clear
2:35 AM 57.2 °F 53.6 °F 88% 30.15 in 10.0 mi North 9.2 mph - N/A   Clear
2:55 AM 57.2 °F 51.8 °F 82% 30.15 in 10.0 mi NNW 10.4 mph - N/A   Clear
3:15 AM 57.2 °F 51.8 °F 82% 30.14 in 10.0 mi NNW 9.2 mph - N/A   Clear
3:35 AM 57.2 °F 51.8 °F 82% 30.14 in 10.0 mi NNW 6.9 mph - N/A   Clear
3:55 AM 57.2 °F 51.8 °F 82% 30.14 in 10.0 mi Calm Calm - N/A   Clear
4:15 AM 55.4 °F 51.8 °F 88% 30.14 in 10.0 mi NE 3.5 mph - N/A   Clear
4:35 AM 55.4 °F 51.8 °F 88% 30.13 in 10.0 mi North 4.6 mph - N/A   Clear
4:55 AM 53.6 °F 51.8 °F 94% 30.13 in 10.0 mi NNE 4.6 mph - N/A   Clear
5:15 AM 53.6 °F 51.8 °F 94% 30.13 in 10.0 mi North 3.5 mph - N/A   Clear
5:35 AM 55.4 °F 50.0 °F 82% 30.13 in 10.0 mi NE 6.9 mph - N/A   Clear
5:55 AM 53.6 °F 50.0 °F 88% 30.13 in 10.0 mi NNE 5.8 mph - N/A   Clear
6:15 AM 53.6 °F 50.0 °F 88% 30.14 in 10.0 mi North 5.8 mph - N/A   Clear
6:35 AM 53.6 °F 50.0 °F 88% 30.14 in 10.0 mi North 5.8 mph - N/A   Clear
6:55 AM 53.6 °F 50.0 °F 88% 30.15 in 10.0 mi NNE 5.8 mph - N/A   Clear
7:15 AM 53.6 °F 48.2 °F 82% 30.15 in 10.0 mi NNE 5.8 mph - N/A   Clear
7:35 AM 53.6 °F 48.2 °F 82% 30.16 in 10.0 mi NE 8.1 mph - N/A   Clear
7:55 AM 53.6 °F 48.2 °F 82% 30.17 in 10.0 mi NNE 6.9 mph - N/A   Clear
8:15 AM 53.6 °F 50.0 °F 88% 30.18 in 10.0 mi North 4.6 mph - N/A   Clear
8:35 AM 57.2 °F 51.8 °F 82% 30.18 in 10.0 mi Calm Calm - N/A   Clear
8:55 AM 60.8 °F 53.6 °F 77% 30.19 in 10.0 mi North 4.6 mph - N/A   Clear
9:15 AM 64.4 °F 55.4 °F 73% 30.20 in 10.0 mi North 8.1 mph - N/A   Clear
9:35 AM 68.0 °F 53.6 °F 60% 30.21 in 10.0 mi North 9.2 mph - N/A   Clear
9:55 AM 69.8 °F 48.2 °F 46% 30.21 in 10.0 mi ENE 9.2 mph - N/A   Clear
10:15 AM 73.4 °F 48.2 °F 41% 30.21 in 10.0 mi ENE 9.2 mph - N/A   Clear
10:35 AM 75.2 °F 48.2 °F 38% 30.22 in 10.0 mi East 9.2 mph - N/A   Clear
10:55 AM 75.2 °F 48.2 °F 38% 30.23 in 10.0 mi ENE 5.8 mph - N/A   Clear
11:15 AM 77.0 °F 48.2 °F 36% 30.23 in 10.0 mi ENE 9.2 mph - N/A   Clear
11:35 AM 78.8 °F 46.4 °F 32% 30.23 in 10.0 mi East 12.7 mph 16.1 mph N/A   Clear
11:55 AM 78.8 °F 46.4 °F 32% 30.23 in 10.0 mi ENE 8.1 mph - N/A   Clear
12:35 PM 80.6 °F 46.4 °F 30% 30.22 in 10.0 mi SE 6.9 mph - N/A   Clear
12:55 PM 80.6 °F 46.4 °F 30% 30.22 in 10.0 mi ESE 5.8 mph - N/A   Clear
1:15 PM 82.4 °F 46.4 °F 28% 30.21 in 10.0 mi ESE 8.1 mph - N/A   Clear
1:35 PM 82.4 °F 46.4 °F 28% 30.21 in 10.0 mi WSW 3.5 mph - N/A   Clear
1:55 PM 82.4 °F 46.4 °F 28% 30.19 in 10.0 mi NE 4.6 mph - N/A   Clear
2:15 PM 82.4 °F 44.6 °F 26% 30.18 in 10.0 mi Calm Calm - N/A   Clear
2:35 PM 84.2 °F 46.4 °F 27% 30.18 in 10.0 mi South 9.2 mph - N/A   Partly Cloudy
3:15 PM 84.2 °F 46.4 °F 27% 30.15 in 10.0 mi West 3.5 mph - N/A   Scattered Clouds
3:35 PM 84.2 °F 44.6 °F 25% 30.15 in 10.0 mi SE 4.6 mph - N/A   Scattered Clouds
3:55 PM 82.4 °F 44.6 °F 26% 30.15 in 10.0 mi North 16.1 mph - N/A Thunderstorm Mostly Cloudy
4:15 PM 80.6 °F 39.2 °F 23% 30.14 in 10.0 mi NNW 18.4 mph 25.3 mph N/A Thunderstorm Mostly Cloudy
4:35 PM 80.6 °F 32.0 °F 17% 30.13 in 5.0 mi NNW 21.9 mph 38.0 mph N/A Thunderstorm Thunderstorm
4:55 PM 80.6 °F 35.6 °F 20% 30.13 in 10.0 mi NNW 5.8 mph - N/A Thunderstorm Mostly Cloudy
5:15 PM 73.4 °F 42.8 °F 33% 30.16 in 9.0 mi SSE 13.8 mph 18.4 mph N/A Thunderstorm Mostly Cloudy
5:35 PM 71.6 °F 46.4 °F 41% 30.17 in 10.0 mi SE 12.7 mph 19.6 mph N/A Thunderstorm Mostly Cloudy
5:55 PM 73.4 °F 44.6 °F 36% 30.17 in 10.0 mi SE 9.2 mph - N/A   Scattered Clouds
6:15 PM 71.6 °F 44.6 °F 38% 30.17 in 10.0 mi SE 5.8 mph - N/A   Scattered Clouds
6:35 PM 71.6 °F 48.2 °F 43% 30.16 in 10.0 mi NE 5.8 mph - N/A   Partly Cloudy
6:55 PM 71.6 °F 48.2 °F 43% 30.16 in 10.0 mi East 4.6 mph - N/A   Clear
7:15 PM 71.6 °F 46.4 °F 41% 30.17 in 10.0 mi SSW 11.5 mph 16.1 mph N/A   Clear
7:35 PM 71.6 °F 46.4 °F 41% 30.17 in 10.0 mi West 4.6 mph - N/A   Clear
7:55 PM 69.8 °F 48.2 °F 46% 30.18 in 10.0 mi NNW 5.8 mph - N/A   Clear
8:15 PM 66.2 °F 51.8 °F 60% 30.17 in 10.0 mi North 8.1 mph - N/A   Clear
8:35 PM 66.2 °F 53.6 °F 64% 30.18 in 10.0 mi North 5.8 mph - N/A   Clear
8:55 PM 66.2 °F 53.6 °F 64% 30.18 in 10.0 mi NNE 5.8 mph - N/A   Clear
9:15 PM 66.2 °F 53.6 °F 64% 30.19 in 10.0 mi NW 5.8 mph - N/A   Clear
9:35 PM 69.8 °F 46.4 °F 43% 30.19 in 10.0 mi WNW 5.8 mph - N/A   Clear
9:55 PM 71.6 °F 42.8 °F 35% 30.19 in 10.0 mi Calm Calm - N/A   Clear
10:15 PM 68.0 °F 44.6 °F 43% 30.19 in 10.0 mi ENE 3.5 mph - N/A   Clear
10:35 PM 62.6 °F 46.4 °F 55% 30.19 in 10.0 mi NNE 5.8 mph - N/A   Clear
10:55 PM 62.6 °F 48.2 °F 59% 30.19 in 10.0 mi NNE 9.2 mph - N/A   Clear
11:15 PM 60.8 °F 48.2 °F 63% 30.19 in 10.0 mi NNE 6.9 mph - N/A   Clear
11:35 PM 59.0 °F 48.2 °F 67% 30.19 in 10.0 mi NNE 8.1 mph - N/A   Clear
11:55 PM 59.0 °F 48.2 °F 67% 30.19 in 10.0 mi NNE 8.1 mph - N/A   Clear